Temperature
11 11 10 10 10 9 9 9 9 9 9 8 8 8 8 8 8 8 8 7 7 7 7 7 6 6 6 5 5 5 4 4 3 3 3 3 2 2 3 3 3 2 2
11 11 10 10 10 9 9 9 8 8 8 8 8 8 8 8 8 8 7 7 7 7 7 7 6 6 6 5 4 4 4 3 3 3 2 2 2 2 2 2 2 2 2
11 10 10 10 10 9 9 8 8 8 8 8 8 8 8 8 8 7 7 7 7 7 7 6 6 6 6 5 4 4 3 3 3 2 2 1 1 1 1 1 1 1 1
10 10 10 10 9 9 8 8 8 8 8 8 8 8 8 7 7 7 7 7 7 7 6 6 6 6 5 5 4 3 3 2 2 2 1 1 1 1 1 1 1 1 1
10 10 10 10 9 9 8 8 8 8 8 8 8 7 7 7 7 7 7 7 7 7 6 6 6 5 5 5 4 3 3 2 1 1 1 1 0 0 0 0 0 0 0
9 9 9 9 9 8 8 8 8 8 7 7 7 7 7 7 7 7 7 7 7 7 6 6 6 5 5 5 4 4 3 2 1 1 0 0 0 -0 -0 -0 -0 -0 -0
9 9 8 8 8 8 8 8 7 7 7 6 6 6 6 7 7 7 7 7 7 7 7 6 6 5 5 4 4 4 3 2 1 1 0 -0 -0 -0 -0 -0 -0 -0 -0
8 8 8 7 7 7 7 7 7 6 6 6 5 5 4 6 7 8 8 8 8 7 7 6 6 6 5 4 4 3 3 3 2 1 0 -0 -0 -1 -1 -1 -1 -1 -0
8 8 7 7 7 6 6 6 6 6 6 5 5 4 4 4 6 7 7 7 7 7 7 6 6 5 5 4 4 3 3 2 2 1 0 -0 -1 -1 -1 -1 -1 -1 -1
8 8 7 7 6 6 6 6 5 5 5 4 4 4 4 4 3 4 5 5 5 5 5 5 5 5 5 4 4 3 2 2 2 1 0 -0 -1 -1 -1 -1 -1 -1 -1
8 8 7 7 6 6 6 5 5 5 4 4 4 4 3 3 2 1 2 3 3 4 4 4 4 4 4 3 3 3 2 2 1 1 0 -1 -1 -1 -1 -1 -1 -1 -2
8 7 7 6 6 6 6 5 5 5 4 4 3 3 2 2 1 1 -0 1 1 2 2 2 2 3 3 3 2 2 2 1 1 0 -0 -1 -1 -2 -2 -2 -2 -2 -2
8 7 7 6 6 6 5 5 5 4 4 4 3 3 2 2 2 1 -0 -0 -0 0 0 0 1 1 1 1 2 1 1 0 0 -0 -1 -1 -2 -2 -2 -3 -3 -3 -3
8 7 7 6 6 5 5 5 4 4 4 3 3 3 2 2 1 0 -0 -1 -1 -1 -1 -1 -1 -0 0 0 1 0 -0 -0 -0 -1 -2 -2 -3 -3 -3 -3 -3 -3 -3
7 7 7 6 6 5 5 4 4 4 3 3 3 3 2 2 1 0 -1 -2 -2 -3 -3 -2 -2 -1 -1 -1 -1 -1 -1 -1 -1 -2 -2 -3 -3 -3 -4 -4 -4 -4 -4
7 6 6 6 6 5 5 4 4 4 3 3 3 2 2 2 1 0 -1 -2 -3 -3 -4 -3 -3 -3 -2 -2 -2 -2 -2 -2 -2 -2 -3 -3 -4 -4 -4 -4 -4 -4 -4
6 6 6 5 5 5 5 4 4 3 3 3 2 2 2 1 1 -0 -1 -2 -3 -4 -4 -4 -4 -4 -4 -4 -3 -3 -3 -3 -3 -3 -3 -3 -4 -4 -4 -5 -5 -5 -5
5 5 5 5 5 5 4 4 3 3 3 2 2 2 1 1 1 -0 -1 -2 -3 -4 -4 -5 -5 -5 -5 -5 -4 -4 -4 -4 -3 -3 -3 -4 -4 -4 -5 -5 -5 -5 -5
5 4 4 4 4 4 4 4 3 3 2 2 2 1 1 1 0 -0 -1 -2 -3 -4 -4 -5 -5 -5 -6 -6 -5 -5 -5 -4 -4 -4 -4 -4 -4 -5 -5 -5 -5 -5 -5
4 4 3 3 3 3 3 3 3 2 2 1 1 1 1 0 -0 -0 -1 -2 -3 -4 -5 -5 -6 -6 -6 -6 -6 -6 -6 -5 -4 -4 -4 -4 -5 -5 -5 -5 -6 -6 -6
3 3 3 2 2 2 2 2 2 2 1 1 1 1 0 -0 -1 -2 -2 -3 -3 -4 -5 -6 -6 -7 -7 -7 -7 -6 -6 -5 -5 -5 -5 -5 -5 -5 -5 -5 -5 -6 -6
2 2 2 1 1 1 1 1 0 0 0 0 0 0 -0 -1 -2 -3 -3 -4 -4 -5 -5 -6 -7 -7 -7 -7 -7 -7 -7 -7 -6 -5 -5 -5 -5 -6 -5 -5 -5 -6 -6
1 1 1 0 0 0 0 0 -0 -1 -1 -1 -1 -1 -1 -1 -2 -2 -3 -4 -4 -4 -5 -6 -6 -7 -7 -6 -7 -7 -7 -7 -6 -6 -6 -7 -6 -7 -6 -6 -6 -7 -7
-0 -0 -0 -0 -1 -0 -0 -1 -1 -1 -1 -1 -1 -2 -2 -2 -3 -3 -3 -4 -4 -4 -5 -5 -6 -6 -6 -6 -6 -7 -7 -7 -7 -7 -7 -8 -7 -7 -6 -6 -7 -7 -8
-1 -1 -1 -1 -1 -1 -1 -1 -2 -2 -2 -2 -2 -2 -3 -3 -3 -4 -5 -5 -5 -5 -5 -6 -6 -6 -6 -6 -6 -7 -7 -7 -8 -7 -7 -8 -7 -7 -7 -7 -7 -7 -8
-2 -2 -2 -2 -2 -2 -2 -2 -2 -3 -3 -2 -2 -3 -3 -3 -4 -4 -5 -5 -6 -6 -6 -6 -6 -6 -6 -6 -6 -6 -6 -7 -8 -8 -7 -7 -8 -8 -8 -8 -8 -8 -8
Wind_Speed
13 14 15 16 16 15 15 14 13 13 13 14 14 14 14 14 14 14 14 12 11 10 9 8 8 7 7 7 7 7 7 7 8 8 9 10 10 11 12 13 14 15 15
17 15 14 15 17 18 17 16 15 13 13 13 13 15 16 16 16 16 17 16 14 13 12 11 11 10 10 9 9 9 9 9 9 9 10 10 11 12 12 13 14 15 16
21 18 14 14 17 19 18 16 15 13 10 10 10 14 15 16 17 18 18 18 18 16 16 15 14 13 13 12 11 11 11 11 11 11 11 12 12 12 13 13 14 15 16
24 20 15 14 19 18 16 11 8 6 8 8 7 8 12 14 17 19 19 19 19 18 18 18 17 16 15 15 14 13 13 13 13 13 13 13 13 14 14 14 15 15 16
26 23 18 17 18 15 14 11 8 7 8 9 9 8 7 9 13 16 17 20 21 21 21 20 20 19 18 17 16 15 15 15 15 15 15 14 15 15 15 16 16 16 17
26 24 18 17 17 10 10 9 9 8 7 8 9 9 8 8 11 13 16 19 20 22 22 21 21 20 20 20 18 17 17 16 16 16 16 16 16 16 16 17 17 17 18
24 23 17 14 14 12 13 13 10 10 9 4 4 6 7 10 14 13 14 14 18 21 21 21 21 21 20 21 20 19 19 18 18 18 18 18 18 17 18 18 18 18 19
23 23 18 12 12 12 13 13 12 8 7 7 6 3 6 6 9 15 14 14 13 16 18 21 21 21 20 20 20 21 20 20 20 20 20 20 19 19 19 19 19 19 20
23 23 21 17 13 14 15 16 15 14 12 9 9 6 5 8 4 5 9 12 11 11 11 16 20 22 21 20 21 22 22 22 21 22 22 21 21 21 21 21 20 20 21
20 23 21 20 16 15 17 17 16 15 14 13 8 11 9 5 4 5 4 6 9 12 11 12 16 20 21 21 21 23 23 23 23 23 23 23 23 23 23 22 22 21 21
16 20 21 18 17 17 18 17 16 17 16 17 13 7 12 11 9 7 11 5 4 7 9 10 10 15 19 21 21 24 25 25 25 25 24 24 24 24 24 24 23 23 23
11 15 17 17 18 18 19 19 18 19 18 18 16 13 9 8 9 12 17 14 8 6 8 10 10 13 18 20 23 25 26 26 26 26 26 25 25 25 25 25 25 24 25
11 13 15 17 18 18 18 17 18 20 20 18 20 17 16 16 8 8 13 13 9 6 6 8 11 13 18 19 21 27 27 27 27 27 26 26 26 26 26 26 26 26 27
12 12 14 17 18 18 18 18 18 19 18 21 22 20 17 16 13 12 10 9 10 8 8 10 6 11 16 19 22 27 23 27 28 27 27 27 27 27 27 27 27 28 28
11 11 13 15 17 18 18 18 17 19 19 20 20 20 19 16 14 13 12 11 12 15 15 9 9 9 14 18 23 21 20 26 28 27 27 27 27 28 28 28 29 29 29
12 11 12 13 15 16 17 17 17 18 19 19 17 18 20 16 14 13 14 12 13 16 18 6 9 7 10 13 22 21 21 26 28 28 27 27 28 28 29 29 29 30 30
11 11 12 13 14 15 15 16 18 17 20 20 18 19 22 17 16 14 13 13 15 14 21 12 7 8 10 10 11 14 17 18 19 26 28 28 29 29 29 30 30 31 31
11 11 11 12 13 14 14 16 18 18 19 20 20 20 21 17 19 16 15 16 16 16 18 19 8 9 12 11 10 9 11 16 16 24 28 29 29 29 30 30 30 31 31
11 11 10 12 13 13 13 15 17 17 18 19 19 20 20 18 20 17 17 17 15 16 15 17 14 9 9 9 9 10 12 9 14 21 26 28 29 30 30 30 30 30 30
11 11 12 12 12 13 13 14 14 16 17 17 17 18 19 19 20 19 18 18 16 15 14 15 14 10 10 8 8 11 12 10 12 14 19 22 25 28 29 29 29 30 30
11 12 12 13 12 11 12 12 13 14 15 16 16 17 18 22 26 22 17 14 14 15 14 14 15 12 12 9 10 10 13 10 10 10 10 12 12 12 15 25 27 29 30
12 11 12 13 13 12 20 24 19 13 13 15 16 16 17 22 27 32 33 30 24 18 17 16 15 16 14 14 12 11 11 10 9 7 10 12 11 12 11 12 24 29 30
11 12 12 13 14 16 24 25 25 16 12 13 14 14 14 15 22 16 24 31 30 34 30 20 19 18 15 14 13 14 14 12 12 7 6 10 9 12 10 16 27 30 31
11 12 13 13 14 16 24 25 25 16 12 12 13 14 14 14 15 16 14 16 17 18 21 20 18 16 15 12 13 15 14 13 10 10 9 12 11 12 12 10 25 29 31
13 12 12 13 14 16 23 25 24 11 10 11 11 12 13 14 22 26 17 16 16 16 24 30 27 24 27 28 21 13 13 12 12 11 10 9 10 11 11 11 16 27 30
14 13 13 13 14 15 21 24 23 9 10 10 9 10 18 19 21 24 16 15 17 14 12 13 18 21 19 21 28 19 14 13 9 8 8 8 7 5 7 7 9 10 14
Wind_Direction
199 204 210 212 213 210 207 211 220 226 232 235 234 230 227 227 227 228 232 241 247 251 257 264 269 274 279 283 288 295 302 308 313 318 322 325 326 329 330 331 332 332 333
201 203 209 212 214 213 213 214 218 223 230 232 235 233 231 231 231 232 234 239 246 249 253 258 262 265 268 272 276 281 286 293 299 304 308 311 314 316 319 321 322 323 324
205 205 208 213 216 216 216 218 223 226 231 232 236 235 234 233 233 234 235 237 241 246 251 254 256 258 261 264 268 273 277 283 288 292 296 300 303 305 308 311 312 314 315
208 207 211 216 215 212 211 212 214 218 229 229 234 235 235 234 236 236 236 236 236 239 245 251 253 255 256 259 263 267 271 275 279 283 287 291 295 297 299 302 304 305 306
211 210 215 217 210 209 212 218 215 211 223 229 235 240 239 237 238 239 236 235 234 235 238 244 249 251 252 255 259 263 267 270 274 277 280 284 288 291 293 295 296 298 299
211 212 217 214 207 208 215 217 219 214 221 224 241 249 243 240 240 239 238 238 235 234 235 235 240 246 250 251 254 259 263 267 270 273 276 279 282 285 287 289 292 293 294
210 212 219 213 209 216 220 216 217 221 226 196 230 272 267 244 243 240 237 235 235 232 229 229 230 233 240 247 251 254 259 264 268 270 273 275 277 280 283 285 287 289 290
214 215 218 217 212 218 222 218 212 220 222 191 193 222 287 290 243 237 231 231 233 229 228 228 226 226 228 233 242 250 256 261 265 267 269 272 274 276 278 280 283 286 288
217 219 220 220 216 216 225 222 215 216 226 211 199 188 213 247 293 257 234 232 228 224 227 228 226 226 225 227 233 243 250 256 261 265 267 269 271 272 274 277 280 283 287
220 221 223 222 221 221 226 224 219 219 219 226 215 221 224 198 232 293 263 236 229 227 224 226 227 225 224 223 229 238 245 251 256 261 264 267 268 270 272 275 278 282 286
224 224 224 225 226 226 228 226 222 218 219 226 221 210 228 236 231 246 271 269 255 235 225 223 224 224 223 223 226 234 243 248 254 259 262 265 268 270 272 275 278 282 285
233 229 227 228 229 230 230 228 226 222 223 225 226 220 210 214 217 224 245 255 248 233 224 221 222 224 225 224 227 235 241 246 251 256 260 263 266 269 272 275 277 280 282
245 237 231 233 234 234 233 229 227 228 226 226 227 229 228 231 215 212 234 251 251 234 227 227 223 223 227 225 228 237 242 245 249 253 257 260 263 267 270 272 275 277 279
253 245 235 237 237 236 235 231 231 231 230 230 231 230 233 233 225 223 225 234 256 254 232 233 224 221 226 225 228 236 239 244 248 251 255 258 262 264 266 269 272 274 276
261 253 244 242 241 239 236 233 235 233 232 232 233 231 233 235 230 228 223 218 234 259 261 215 215 216 220 223 230 233 231 240 246 250 253 257 260 262 264 266 268 270 273
263 262 257 251 248 244 240 237 239 237 235 234 233 233 234 235 232 228 226 223 224 240 260 223 211 198 209 221 229 229 228 238 244 248 253 256 260 262 264 265 267 268 270
269 266 264 260 255 251 245 241 241 238 237 239 234 234 236 231 232 229 225 225 227 229 250 251 203 202 203 217 231 226 226 234 240 248 254 258 261 262 263 264 265 266 268
274 270 268 266 262 258 251 245 245 242 240 240 238 236 237 233 232 229 227 228 229 227 238 252 227 209 214 216 222 226 232 236 234 247 254 258 259 260 261 262 264 265 267
282 280 274 270 268 265 258 251 248 247 243 242 239 237 237 232 233 230 228 229 230 230 231 243 243 220 221 220 225 233 237 237 241 248 254 257 258 259 260 262 263 265 267
286 284 280 275 272 269 264 259 254 251 249 246 242 239 237 232 233 231 230 229 227 228 228 235 241 231 227 216 218 233 241 235 241 244 250 253 255 258 259 261 263 266 269
284 281 282 282 277 273 268 263 256 253 251 251 247 243 240 239 237 236 234 229 223 227 227 232 238 235 229 220 222 223 237 240 239 237 243 248 251 253 257 260 264 268 270
286 283 280 280 280 279 282 283 279 260 251 250 251 248 245 248 248 247 245 239 227 222 224 228 233 232 229 224 225 225 230 234 244 223 231 243 236 243 244 244 256 262 267
286 284 282 279 279 280 287 289 287 282 261 253 249 249 249 244 246 240 246 248 244 236 227 222 230 229 226 221 220 226 228 228 236 225 212 248 242 248 246 251 260 264 268
286 285 284 282 282 284 291 293 292 286 272 259 250 246 246 245 238 236 233 236 238 240 238 233 229 227 223 219 215 223 229 236 242 240 229 253 253 254 254 248 261 265 269
291 286 284 285 285 287 292 295 295 282 274 266 256 248 247 245 248 248 241 236 237 237 242 240 238 232 227 227 222 222 226 231 242 239 222 235 251 257 258 256 258 264 268
290 289 286 283 283 284 290 295 296 283 276 273 264 251 256 255 253 252 244 236 237 232 225 236 243 247 241 237 233 223 218 226 237 241 216 217 235 241 264 249 247 253 261
Height
1546 1547 1548 1549 1549 1549 1550 1550 1550 1550 1549 1549 1549 1548 1548 1548 1547 1547 1547 1546 1545 1545 1544 1543 1542 1541 1540 1539 1538 1537 1536 1535 1534 1533 1532 1531 1531 1530 1529 1528 1527 1526 1525
1542 1543 1544 1545 1546 1546 1547 1547 1547 1546 1546 1546 1545 1545 1544 1544 1543 1543 1543 1542 1542 1541 1541 1540 1539 1538 1537 1536 1535 1534 1533 1532 1531 1530 1529 1528 1527 1527 1526 1525 1524 1523 1522
1537 1539 1540 1540 1542 1543 1543 1543 1543 1542 1542 1541 1541 1541 1540 1540 1539 1538 1538 1538 1537 1537 1536 1535 1535 1534 1533 1532 1532 1531 1530 1529 1528 1527 1526 1525 1524 1523 1523 1522 1521 1520 1519
1532 1533 1534 1535 1537 1538 1538 1538 1538 1537 1537 1536 1536 1536 1535 1534 1534 1533 1532 1532 1532 1531 1531 1530 1530 1529 1528 1528 1527 1526 1525 1524 1524 1523 1522 1521 1520 1520 1519 1518 1517 1517 1516
1526 1527 1528 1529 1532 1532 1532 1532 1532 1531 1531 1531 1530 1530 1529 1527 1527 1526 1525 1525 1525 1525 1525 1525 1524 1523 1523 1522 1522 1521 1520 1519 1519 1518 1518 1517 1516 1516 1515 1514 1514 1513 1512
1519 1520 1521 1522 1524 1524 1524 1524 1524 1524 1524 1525 1524 1522 1520 1519 1518 1517 1517 1517 1517 1517 1518 1518 1517 1517 1517 1516 1516 1515 1515 1514 1514 1513 1513 1512 1512 1511 1510 1510 1509 1509 1508
1511 1512 1513 1514 1515 1515 1516 1517 1517 1517 1516 1518 1517 1513 1510 1510 1508 1507 1508 1508 1508 1509 1509 1509 1510 1510 1510 1510 1509 1509 1508 1508 1507 1507 1507 1507 1506 1506 1505 1505 1504 1504 1503
1504 1504 1505 1505 1506 1507 1507 1508 1508 1508 1508 1510 1509 1507 1502 1498 1495 1496 1497 1497 1497 1499 1499 1501 1501 1502 1503 1503 1503 1502 1502 1501 1501 1501 1501 1500 1500 1500 1500 1499 1499 1498 1498
1496 1496 1496 1496 1496 1497 1496 1497 1498 1499 1498 1499 1500 1500 1498 1490 1488 1485 1485 1486 1487 1488 1490 1491 1492 1494 1495 1495 1495 1495 1495 1494 1494 1494 1494 1493 1493 1494 1494 1493 1493 1493 1492
1488 1487 1487 1487 1486 1486 1485 1486 1487 1487 1488 1487 1487 1487 1487 1487 1486 1478 1476 1477 1478 1478 1480 1482 1483 1485 1486 1487 1487 1488 1487 1487 1486 1486 1486 1486 1486 1487 1487 1487 1487 1486 1485
1479 1478 1477 1477 1476 1475 1474 1475 1475 1475 1475 1475 1475 1475 1475 1475 1475 1474 1467 1466 1466 1467 1470 1473 1475 1476 1478 1478 1479 1479 1479 1479 1479 1479 1479 1479 1479 1479 1480 1479 1479 1479 1478
1470 1469 1468 1467 1465 1464 1463 1463 1463 1463 1462 1462 1463 1462 1462 1462 1460 1461 1460 1456 1456 1457 1461 1463 1465 1467 1468 1469 1470 1471 1471 1471 1471 1471 1470 1470 1471 1471 1471 1471 1471 1471 1470
1461 1459 1459 1457 1455 1454 1453 1452 1451 1450 1450 1449 1449 1449 1449 1447 1450 1451 1451 1448 1447 1446 1448 1449 1451 1455 1458 1459 1460 1462 1462 1462 1462 1462 1462 1462 1462 1462 1462 1462 1462 1462 1462
1453 1451 1449 1446 1444 1443 1442 1441 1439 1438 1438 1436 1436 1436 1436 1435 1437 1438 1438 1441 1438 1435 1435 1434 1438 1442 1446 1448 1450 1452 1451 1452 1452 1453 1453 1453 1453 1453 1453 1453 1453 1453 1453
1447 1444 1441 1437 1435 1433 1431 1430 1427 1426 1425 1424 1423 1424 1423 1423 1425 1426 1427 1429 1432 1426 1420 1422 1426 1429 1434 1437 1439 1440 1440 1442 1443 1443 1444 1444 1444 1444 1444 1444 1444 1444 1444
1439 1436 1432 1429 1425 1423 1421 1419 1416 1415 1413 1411 1411 1411 1410 1411 1413 1414 1415 1416 1417 1417 1411 1408 1414 1418 1422 1425 1428 1429 1430 1432 1432 1433 1434 1434 1434 1434 1434 1435 1435 1435 1434
1432 1427 1423 1419 1416 1413 1410 1407 1404 1403 1401 1399 1399 1398 1397 1400 1400 1401 1403 1404 1405 1405 1401 1397 1404 1407 1410 1414 1417 1418 1419 1420 1421 1423 1423 1424 1424 1424 1424 1424 1425 1425 1425
1424 1419 1415 1410 1406 1403 1400 1396 1393 1391 1389 1387 1387 1387 1385 1388 1387 1389 1390 1390 1391 1392 1391 1388 1391 1394 1397 1401 1405 1407 1408 1409 1410 1412 1412 1412 1412 1413 1413 1414 1414 1414 1414
1415 1411 1406 1401 1397 1393 1389 1385 1382 1379 1377 1375 1375 1374 1373 1375 1374 1376 1377 1377 1378 1380 1380 1379 1379 1383 1386 1389 1392 1393 1395 1397 1398 1400 1401 1401 1401 1402 1403 1403 1403 1404 1403
1406 1401 1396 1391 1387 1382 1378 1374 1371 1367 1365 1363 1362 1361 1361 1361 1361 1363 1364 1364 1366 1367 1368 1368 1369 1372 1374 1377 1380 1380 1382 1384 1386 1388 1389 1389 1389 1390 1391 1392 1392 1392 1392
1398 1392 1386 1381 1377 1372 1368 1364 1359 1356 1353 1350 1349 1349 1348 1348 1348 1350 1350 1350 1353 1354 1356 1357 1358 1361 1363 1365 1366 1369 1371 1373 1374 1377 1377 1377 1378 1378 1379 1380 1380 1379 1379
1388 1382 1377 1371 1366 1362 1358 1354 1350 1345 1341 1339 1337 1336 1336 1336 1336 1338 1339 1340 1341 1341 1343 1345 1346 1348 1349 1353 1357 1359 1361 1363 1363 1366 1366 1365 1367 1365 1366 1367 1367 1366 1365
1378 1372 1367 1362 1356 1352 1348 1344 1340 1336 1331 1328 1326 1325 1324 1323 1324 1324 1325 1328 1330 1331 1331 1333 1333 1334 1339 1343 1347 1349 1351 1351 1352 1355 1356 1353 1355 1353 1354 1354 1355 1354 1353
1368 1362 1357 1352 1346 1342 1338 1334 1329 1325 1321 1318 1316 1314 1313 1312 1313 1313 1313 1313 1315 1318 1321 1323 1321 1323 1329 1333 1336 1339 1341 1342 1343 1344 1346 1343 1343 1342 1343 1342 1342 1342 1340
1358 1353 1347 1342 1337 1332 1329 1324 1320 1315 1310 1307 1306 1305 1303 1301 1302 1303 1303 1301 1302 1304 1308 1312 1314 1316 1319 1323 1326 1329 1331 1332 1331 1332 1335 1334 1332 1332 1330 1329 1329 1329 1327
1349 1343 1337 1333 1328 1323 1319 1315 1311 1306 1301 1298 1296 1295 1294 1292 1292 1292 1292 1292 1291 1293 1297 1300 1303 1307 1310 1313 1317 1318 1320 1321 1321 1322 1323 1324 1323 1323 1318 1315 1315 1314 1313